x

9439040 - Astoria, Or (asto3) Weather Station

10:18 - Tue 28th Jul 2015 All times are PDT. -7 hours from GMT.

  • Wind
    1mph, 3mph gusts
  • Sea Temp 70°f
  • Air Temp 63°f
  • Sea Pressure 1025.2mb
  • 9439040 - Astoria, Or
  • 9439040 - Astoria, Or

More Historic Weather Station data

Upgrade to MSW Pro to gain access to the past 30 days of data for over 8000 Wavebouys and Weather Stations around the globe.

Join Pro

Comparision Forecast

View Surf forecast
   
mar. 07/28 10:18 1 3 mph 1025.2mb 70f 63f
10:12 2 3 mph 1025.2mb 70f 62f
10:06 2 3 mph 1025.2mb 70f 62f
10:00 2 3 mph 1025.2mb 70f 62f
9:54 2 3 mph 1025.2mb 70f 62f
9:48 2 3 mph 1025.2mb 70f 61f
9:42 2
mph
1025.3mb 70f 62f
9:36 1 3 mph 1025.3mb 70f 61f
9:30 2 5 mph 1025.5mb 70f 61f
9:24 2 3 mph 1025.5mb 70f 62f
9:18 1 3 mph 1025.5mb 70f 62f
9:12 2 6 mph 1025.4mb 70f 61f
9:06 3 6 mph 1025.4mb 70f 60f
9:00 5 6 mph 1025.4mb 70f 60f
8:54 2 3 mph 1025.4mb 69f 61f
8:48 3 6 mph 1025.5mb 69f 60f
8:42 3 5 mph 1025.5mb 69f 60f
8:36 3 6 mph 1025.5mb 69f 60f
8:30 2 3 mph 1025.6mb 69f 60f
8:24 3 6 mph 1025.5mb 69f 60f
8:18 2 6 mph 1025.5mb 69f 60f
8:12 3 5 mph 1025.4mb 69f 59f
8:06 3 5 mph 1025.4mb 69f 59f
8:00 3 6 mph 1025.4mb 69f 59f
7:54 3 5 mph 1025.4mb 69f 59f
7:48 3 6 mph 1025.5mb 69f 58f
7:42 5 7 mph 1025.5mb 69f 58f
7:36 5 6 mph 1025.5mb 68f 58f
7:30 5 6 mph 1025.4mb 68f 58f
7:24 5 7 mph 1025.4mb 68f 58f
7:18 5 8 mph 1025.4mb 68f 58f
7:12 6 9 mph 1025.3mb 68f 59f
7:06 8 9 mph 1025.3mb 68f 59f
7:00 8 10 mph 1025.4mb 68f 59f
6:54 9 10 mph 1025.3mb 68f 59f
6:48 8 9 mph 1025.2mb 68f 59f
6:42 7 9 mph 1025.2mb 68f 59f
6:36 6 10 mph 1025.2mb 68f 59f
6:30 7 11 mph 1025.2mb 68f 59f
6:24 11 14 mph 1025.2mb 68f 60f
6:18 8 11 mph 1025.3mb 68f 60f
6:12 8 11 mph 1025.4mb 68f 60f
6:06 8 11 mph 1025.4mb 68f 60f
6:00 5 13 mph 1025.3mb 68f 60f
5:54 6 8 mph 1025.3mb 68f 61f
5:48 5 7 mph 1025.3mb 68f 60f
5:42 6 7 mph 1025.2mb 68f 60f
5:36 5 8 mph 1025.2mb 68f 60f
5:30 6 7 mph 1025.2mb 68f 60f
5:24 6 8 mph 1025.2mb 68f 60f
5:18 7 9 mph 1025.3mb 68f 60f
5:12 9 11 mph 1025.2mb 68f 60f
5:06 9 10 mph 1025.3mb 68f 60f
5:00 8 11 mph 1025.3mb 68f 60f
4:54 7 8 mph 1025.1mb 68f 60f
4:48 6 9 mph 1025.2mb 68f 61f
4:42 3 7 mph 1025.1mb 68f 61f
4:36 6 7 mph 1025.2mb 68f 61f
4:30 3 6 mph 1025.2mb 68f 60f
4:24 2 5 mph 1025.2mb 68f 60f
4:18 2 6 mph 1025.1mb 68f 61f
4:12 3 7 mph 1025.1mb 68f 61f
4:06 6 7 mph 1025.1mb 68f 61f
4:00 3 7 mph 1025.2mb 68f 61f
3:54 3 7 mph 1025.2mb 68f 61f
3:48 5 8 mph 1025.2mb 68f 61f
3:42 6 9 mph 1025.2mb 68f 61f
3:36 7 9 mph 1025.3mb 68f 61f
3:30 8 10 mph 1025.2mb 68f 61f
3:24 9 11 mph 1025.2mb 68f 60f
3:18 9 11 mph 1025.2mb 68f 61f
3:12 9 11 mph 1025.2mb 68f 61f
3:06 8 10 mph 1025.2mb 68f 61f
3:00 9 11 mph 1025.2mb 68f 61f
2:54 10 13 mph 1025.3mb 68f 61f
2:48 8 11 mph 1025.2mb 68f 61f
2:42 6 11 mph 1025.2mb 68f 61f
2:36 8 9 mph 1025.3mb 68f 61f
2:30 8 11 mph 1025.2mb 68f -
2:24 10 14 mph 1025.3mb 68f -
2:18  -  mph - - 61f
2:12  -  mph - - 61f
2:06  -  mph - - 61f
2:00 3 7 mph 1025.4mb 68f 61f
1:54 6 8 mph 1025.4mb 68f 61f
1:48 5 7 mph 1025.4mb 68f 61f
1:42 6 9 mph 1025.4mb 68f 61f
1:36 6 9 mph 1025.4mb 68f 61f
1:30 6 8 mph 1025.4mb 68f 61f
1:24 5 7 mph 1025.4mb 68f 61f
1:18 1 5 mph 1025.4mb 68f 61f
1:12 5 7 mph 1025.4mb 69f 61f
1:06 5 7 mph 1025.4mb 69f 61f
1:00 7 10 mph 1025.5mb 68f 61f
12:54 5 8 mph 1025.5mb 68f 61f
12:48 5 9 mph 1025.5mb 68f 61f
12:42 7 9 mph 1025.6mb 68f 61f
12:36 8 9 mph 1025.6mb 69f 62f
12:30 7 9 mph 1025.6mb 69f 61f
12:24 6 9 mph 1025.6mb 69f 62f
12:18 6 10 mph 1025.7mb 69f 62f
12:12 7 10 mph 1025.7mb 69f 62f
12:06 9 13 mph 1025.7mb 69f 62f
12:00 6 8 mph 1025.8mb 69f 62f
lun. 07/27 11:54 3 9 mph 1025.7mb 69f 62f
11:48 6 10 mph 1025.8mb 68f 62f
11:42 5 8 mph 1025.8mb 68f 62f
11:36 5 6 mph 1025.8mb 68f 62f
11:30 3 6 mph 1025.8mb 68f 62f
11:24 3 8 mph 1025.8mb 68f 62f
11:18 6 8 mph 1025.8mb 68f 62f
11:12 5 8 mph 1025.8mb 68f 62f
11:06 6 8 mph 1025.8mb 68f 62f
11:00 5 8 mph 1025.8mb 68f 62f
10:54 5 8 mph 1025.8mb 69f 62f
10:48 5 8 mph 1025.8mb 69f 62f
10:42 6 8 mph 1025.9mb 69f 62f
10:36 7 9 mph 1025.9mb 69f 62f
10:30 7 11 mph 1025.9mb 69f 62f
10:24 8 10 mph 1025.9mb 69f 62f
10:18 8 9 mph 1025.9mb 69f 62f
10:12 7 9 mph 1025.9mb 70f 62f
10:06 7 9 mph 1025.9mb 70f 62f
10:00 6 9 mph 1025.9mb 70f 62f
9:54 7 9 mph 1025.9mb 70f 62f
9:48 5 8 mph 1025.8mb 70f 62f
9:42 7 9 mph 1025.8mb 70f 63f
9:36 8 10 mph 1025.8mb 70f 63f
9:30 8 10 mph 1025.9mb 70f 63f
9:24 7 13 mph 1025.8mb 70f 63f
9:18 8 10 mph 1025.6mb 70f 63f
9:12 8 10 mph 1025.6mb 70f 63f
9:06 8 9 mph 1025.5mb 71f 63f
9:00 7 11 mph 1025.4mb 71f 64f
8:54 8 14 mph 1025.4mb 71f 64f
8:48 10 14 mph 1025.3mb 71f 64f
8:42 10 13 mph 1025.4mb 71f 64f
8:36 10 13 mph 1025.3mb 71f 64f
8:30 10 14 mph 1025.3mb 71f 64f
8:24 10 15 mph 1025.4mb 71f 64f
8:18 11 14 mph 1025.3mb 71f 64f
8:12 10 13 mph 1025.3mb 71f 64f
8:06 9 13 mph 1025.3mb 70f 64f
8:00 9 11 mph 1025.3mb 70f 65f
7:54 10 11 mph 1025.3mb 70f 65f
7:48 11 13 mph 1025.3mb 70f 65f
7:42 11 14 mph 1025.3mb 70f 65f
7:36 9 15 mph 1025.2mb 70f 65f
7:30 11 14 mph 1025.1mb 70f 65f
7:24 11 14 mph 1025.1mb 70f 65f
7:18 13 15 mph 1025.1mb 70f 65f
7:12 11 14 mph 1025mb 70f 65f
7:06 13 18 mph 1025.1mb 70f 65f
7:00 16 20 mph 1025.1mb 70f 65f
6:54 15 20 mph 1025mb 69f 65f
6:48 16 20 mph 1025mb 70f 65f
6:42 14 16 mph 1025mb 69f 65f
6:36 15 20 mph 1025mb 69f 65f
6:30 16 21 mph 1025.1mb 69f 65f
6:24 16 18 mph 1025.1mb 69f 65f
6:18 14 18 mph 1025mb 69f 66f
6:12 14 17 mph 1025mb 69f 66f
6:06 15 17 mph 1025mb 69f 66f
6:00 17 18 mph 1025mb 69f 66f
5:54 17 20 mph 1025mb 69f 66f
5:48 15 18 mph 1025mb 69f 66f
5:42 11 16 mph 1025mb 70f 66f
5:36 14 17 mph 1025mb 70f 66f
5:30 14 20 mph 1024.9mb 70f 65f
5:24 14 17 mph 1024.9mb 71f 65f
5:18 14 17 mph 1024.9mb 71f 65f
5:12 16 18 mph 1024.9mb 71f 65f
5:06 15 18 mph 1024.9mb 71f 65f
5:00 15 18 mph 1025mb 71f 65f
4:54 14 20 mph 1025mb 71f 65f
4:48 13 17 mph 1025mb 71f 65f
4:42 15 18 mph 1025mb 70f 65f
4:36 15 18 mph 1025mb 70f 65f
4:30 15 17 mph 1025mb 70f 64f
4:24 16 18 mph 1024.9mb 70f 64f
4:18 15 17 mph 1024.9mb 70f 64f
4:12 14 18 mph 1024.9mb 70f 64f
4:06 15 18 mph 1024.9mb 70f 64f
4:00 13 18 mph 1024.9mb 70f 65f
3:54 15 18 mph 1024.9mb 70f 64f
3:48 17 20 mph 1024.9mb 70f 64f
3:42 15 22 mph 1024.9mb 70f 64f
3:36 15 18 mph 1024.9mb 70f 64f
3:30 17 20 mph 1024.9mb 70f 64f
3:24 16 20 mph 1024.9mb 69f 64f
3:18 16 21 mph 1024.9mb 69f 64f
3:12 16 21 mph 1024.9mb 70f 64f
3:06 14 18 mph 1024.8mb 70f 64f
3:00 15 18 mph 1024.8mb 70f 64f
2:54 16 18 mph 1024.8mb 69f 64f
2:48 14 18 mph 1024.8mb 69f 64f
2:42 15 18 mph 1024.7mb 69f 64f
2:36 15 17 mph 1024.7mb 69f 64f
2:30 15 17 mph 1024.7mb 69f 64f
2:24 14 17 mph 1024.8mb 68f 64f
2:18 15 17 mph 1024.7mb 66f 64f
2:12 13 18 mph 1024.7mb 65f 64f
2:06 14 18 mph 1024.7mb 65f 64f
2:00 13 17 mph 1024.6mb 65f 64f
1:54 13 17 mph 1024.5mb 66f 64f
1:48 14 17 mph 1024.5mb 67f 64f
1:42 14 17 mph 1024.4mb 67f 64f
1:36 13 16 mph 1024.5mb 67f 64f
1:30 14 16 mph 1024.4mb 67f 63f
1:24 13 16 mph 1024.4mb 67f 64f
1:18 14 17 mph 1024.5mb 67f 64f
1:12 14 16 mph 1024.5mb 68f 64f
1:06 13 16 mph 1024.4mb 68f 64f
1:00 14 16 mph 1024.5mb 68f 64f
12:54 11 16 mph 1024.4mb 68f 64f
12:48 14 17 mph 1024.4mb 68f 64f
12:42 14 16 mph 1024.4mb 68f 64f
12:36 13 15 mph 1024.4mb 68f 64f
12:30 11 14 mph 1024.4mb 68f 64f
12:24 13 14 mph 1024.4mb 68f 64f
12:18 11 14 mph 1024.4mb 68f 64f
12:12 10 14 mph 1024.4mb 68f 64f
12:06 11 13 mph 1024.3mb 69f 64f
12:00 10 13 mph 1024.2mb 69f 64f
11:54 11 14 mph 1024.2mb 69f 64f
11:48 11 14 mph 1024.2mb 69f 64f
11:42 11 13 mph 1024.1mb 69f 64f
11:36 9 14 mph 1024.1mb 69f 64f
11:30 7 10 mph 1024mb 69f 64f
11:24 9 11 mph 1024mb 69f 64f
11:18 2 5 mph 1024mb - 64f
11:12 6 8 mph 1024mb - 63f
11:06 7 9 mph 1024mb - 63f
11:00 5 8 mph 1024mb 69f 63f
10:54 3 7 mph 1023.9mb 69f 63f
10:48 7 9 mph 1024mb 70f 63f
10:42 5 7 mph 1024mb 70f 62f
10:36 3 5 mph 1024mb 70f 62f
10:30 6 8 mph 1023.9mb 70f 62f
10:24 6 8 mph 1023.8mb 70f 62f
10:18 6
mph
1023.7mb 70f 62f
10:12 5 8 mph 1023.7mb 70f 62f
10:06 7 9 mph 1023.6mb 70f 62f
10:00 6 9 mph 1023.6mb 70f 62f
9:54 5 7 mph 1023.6mb 70f 62f
9:48 5 7 mph 1023.7mb 70f 62f
9:42  -  3 mph 1023.6mb 70f 62f
9:36 2 3 mph 1023.6mb 69f 62f
9:30 3 5 mph 1023.5mb 69f 61f
9:24 3 6 mph 1023.5mb 69f 61f
9:18 3 5 mph 1023.5mb 69f 61f
9:12 5
mph
1023.4mb 69f 61f
9:06 1 3 mph 1023.3mb 69f 62f
9:00  -  2 mph 1023.2mb 69f 62f
8:54  -  2 mph 1023.2mb 69f 62f
8:48 2 3 mph 1023.1mb 69f 62f
8:42  -  6 mph 1023.1mb 69f 62f
8:36 2 3 mph 1023mb 69f 62f
8:30  -  1 mph 1023mb 69f 63f
8:24  -  3 mph 1023mb 69f 62f
8:18 2 3 mph 1022.9mb 68f 61f
8:12 1 3 mph 1022.9mb 68f 60f
8:06 2 5 mph 1022.8mb 68f 60f
8:00 2 3 mph 1022.8mb 68f 60f
7:54  -  5 mph 1022.8mb 68f 60f
7:48 5 7 mph 1022.7mb 68f 59f
7:42 3 6 mph 1022.7mb 68f 59f
7:36 5 6 mph 1022.6mb 68f 59f
7:30 3 6 mph 1022.6mb 68f 59f
7:24 2 5 mph 1022.5mb 68f 59f
7:18 2 5 mph 1022.6mb 68f 59f
7:12 3 5 mph 1022.5mb 68f 59f
7:06 2 5 mph 1022.5mb 68f 59f
7:00 3 6 mph 1022.5mb 68f 59f
6:54 3 6 mph 1022.4mb 68f 60f
6:48 2 3 mph 1022.4mb 68f 60f
6:42 2 5 mph 1022.3mb 68f 60f
6:36 1 2 mph 1022.3mb 68f 60f
6:30 1 2 mph 1022.3mb 68f 59f
6:24 2 3 mph 1022.2mb 68f 59f
6:18 2 3 mph 1022.1mb 68f 59f
6:12 2 3 mph 1022.1mb 68f 59f
6:06 3
mph
1022.1mb 68f 59f
6:00 3 6 mph 1022mb 68f 59f
5:54 2 5 mph 1022mb 68f 59f
5:48 2
mph
1022mb 68f 59f
5:42 2
mph
1022mb 68f 60f
5:36 1 2 mph 1022mb 68f 60f
5:30 1 2 mph 1022mb 68f 60f
5:24 1 3 mph 1021.9mb 68f 60f
5:18 1 7 mph 1021.8mb 68f 60f
5:12 2 6 mph 1021.8mb 68f 60f
5:06 3 6 mph 1021.7mb 68f 60f
5:00 5 7 mph 1021.6mb 68f 61f
4:54 5 7 mph 1021.6mb 68f 61f
4:48 3 7 mph 1021.6mb 68f 60f
4:42 5 7 mph 1021.5mb 68f 60f
4:36 2 6 mph 1021.4mb 68f 60f
4:30 5 8 mph 1021.4mb 68f 60f
4:24 6 8 mph 1021.4mb 68f 61f
4:18 6 8 mph 1021.4mb 68f 61f
4:12 7 9 mph 1021.3mb 68f 61f
4:06 7 9 mph 1021.3mb 68f 61f
4:00 7 9 mph 1021.3mb 68f 60f
3:54 6 10 mph 1021.2mb 68f 60f
3:48 9 11 mph 1021.2mb 68f 60f
3:42 8 11 mph 1021.2mb 68f 61f
3:36 9 14 mph 1021.1mb 68f 61f
3:30 9 11 mph 1021.1mb 68f 61f
3:24 10 13 mph 1021.1mb 68f 60f
3:18 10 14 mph 1021mb 68f 60f
3:12 11 14 mph 1021mb 68f 60f
3:06 10 13 mph 1021mb 68f 61f
3:00 9 13 mph 1021mb 68f 61f
2:54 8 11 mph 1021mb 68f 61f
2:48 9 13 mph 1021mb 68f 61f
2:42 9 13 mph 1021mb 68f 61f
2:36 7 9 mph 1021mb 68f 61f
2:30 8 11 mph 1021mb 68f 61f
2:24 6 9 mph 1021mb 68f 61f
2:18 8 9 mph 1021mb 68f 61f
2:12 7 10 mph 1021mb 68f 61f
2:06 7 10 mph 1021mb 68f 61f
2:00 7 9 mph 1020.9mb 68f 61f
1:54 3 6 mph 1020.9mb 67f 62f
1:48 5 9 mph 1020.9mb 67f 61f
1:42 7 9 mph 1020.9mb 67f 61f
1:36 2 5 mph 1020.9mb 67f 61f
1:30 5 7 mph 1020.9mb 67f 61f
1:24 6 9 mph 1020.8mb 67f 62f
1:18 7 8 mph 1020.8mb 68f 62f
1:12 6 10 mph 1020.8mb 68f 62f
1:06 6 9 mph 1020.8mb 68f 62f
1:00 6 10 mph 1020.8mb 68f 62f
12:54 6 8 mph 1020.8mb 68f 62f
12:48 6 10 mph 1020.8mb 68f 62f
12:42 7 9 mph 1020.8mb 68f 62f
12:36 5 9 mph 1020.7mb 68f 62f
12:30 9 10 mph 1020.8mb 68f 62f
12:24 5 8 mph 1020.8mb 69f 62f
12:18 6 8 mph 1020.8mb 69f 62f
12:12 5 9 mph 1020.7mb 69f 62f
12:06 6 8 mph 1020.7mb 69f 62f
12:00 6 8 mph 1020.7mb 69f 62f
dim. 07/26 11:54 5 9 mph 1020.7mb 69f 62f
11:48 5 7 mph 1020.7mb 69f 62f
11:42 7 11 mph 1020.7mb 69f 62f
11:36 8 11 mph 1020.7mb 69f 62f
11:30 7 11 mph 1020.7mb 69f 62f
11:24 6 9 mph 1020.7mb 69f 62f
11:18 7 10 mph 1020.8mb 69f 62f
11:12 6 9 mph 1020.8mb 69f 62f
11:06 7 13 mph 1020.8mb 69f 62f
11:00 7 16 mph 1020.8mb 69f 62f
10:54 8 11 mph 1020.8mb 69f 62f
10:48 6 10 mph 1020.9mb 69f 62f
10:42 7 11 mph 1020.9mb 69f 62f
10:36 7 10 mph 1020.9mb 69f 62f
10:30 10 13 mph 1020.9mb 69f 62f
10:24 8 11 mph 1020.9mb 69f 62f
10:18 8 10 mph 1020.9mb 69f 62f
10:12 7 13 mph 1020.8mb 69f 62f
10:06 9 13 mph 1020.8mb 69f 62f
10:00 10 13 mph 1020.8mb 69f 62f
9:54 10 14 mph 1020.8mb 69f 62f
9:48 9 14 mph 1020.8mb 70f 62f
9:42 10 14 mph 1020.7mb 70f 62f
9:36 11 14 mph 1020.7mb 71f 62f
9:30 11 14 mph 1020.7mb 71f 62f
9:24 9 15 mph 1020.6mb 71f 62f
9:18 10 15 mph 1020.6mb 71f 63f
9:12 10 15 mph 1020.5mb 71f 63f
9:06 11 15 mph 1020.4mb 71f 63f
9:00 11 14 mph 1020.3mb 71f 63f
8:54 10 13 mph 1020.3mb 71f 63f
8:48 10 17 mph 1020.3mb 71f 63f
8:42 14 15 mph 1020.2mb 71f 63f
8:36 9 13 mph 1020.2mb 71f 64f
8:30 10 14 mph 1020.1mb 71f 63f
8:24 5 13 mph 1020.1mb 71f 64f
8:18 10 14 mph 1020.1mb 71f 63f
8:12 11 15 mph 1020.1mb 71f 64f
8:06 11 15 mph 1020.1mb 71f 64f
8:00 10 13 mph 1020.2mb 71f 64f
7:54 11 13 mph 1020.1mb 71f 64f
7:48 7 10 mph 1020.1mb 71f 64f
7:42 3 14 mph 1020.2mb 71f 65f
7:36 5 11 mph 1020.2mb 71f 65f
7:30 5 13 mph 1020.1mb 71f 65f
7:24 6 9 mph 1020mb 71f 65f
7:18 3 8 mph 1020mb 71f 65f
7:12 6 9 mph 1020mb 71f 65f
7:06 9 13 mph 1020mb 71f 65f
7:00 9 14 mph 1020mb 71f 65f
6:54 3 13 mph 1020.1mb 71f 65f
6:48 10 14 mph 1020mb 71f 64f
6:42 10 13 mph 1020.1mb 71f 65f
6:36 2 7 mph 1020.1mb 71f 66f
6:30 2 9 mph 1020.1mb 70f 66f
6:24 1 5 mph 1020.1mb 70f 66f
6:18 1 6 mph 1020.1mb 70f 66f
6:12 2 6 mph 1020.1mb 70f 66f
6:06 1 7 mph 1020.1mb 70f 66f
6:00 2 8 mph 1020.1mb 70f 66f
5:54 2 7 mph 1020.1mb 70f 65f
5:48 2 6 mph 1020.1mb 70f 66f
5:42 2 6 mph 1020.1mb 70f 66f
5:36 2 6 mph 1020.1mb 70f 66f
5:30 2 8 mph 1020.1mb 69f 65f
5:24 2 6 mph 1020mb 69f 65f
5:18 2 6 mph 1020mb 69f 66f
5:12 1 6 mph 1020mb 69f 66f
5:06 2 9 mph 1020mb 69f 66f
5:00 1 6 mph 1020mb 69f 66f
4:54 2 7 mph 1019.9mb 69f 66f
4:48 2 7 mph 1019.9mb 69f 66f
4:42 2 8 mph 1019.9mb 69f 66f
4:36 2 6 mph 1019.8mb 69f 66f
4:30 2 7 mph 1019.8mb 70f 66f
4:24 1 8 mph 1019.8mb 69f 66f
4:18 2 7 mph 1019.8mb 69f 67f
4:12 2 6 mph 1019.8mb 70f 67f
4:06 2 7 mph 1019.8mb 70f 66f
4:00 1 9 mph 1019.7mb 69f 66f
3:54 1 7 mph 1019.7mb 69f 67f
3:48 2 10 mph 1019.7mb 70f 66f
3:42 2 7 mph 1019.7mb 70f 66f
3:36 2 9 mph 1019.7mb 70f 66f
3:30 2 6 mph 1019.7mb 70f 66f
3:24  -  3 mph 1019.7mb 69f 67f
3:18 1 8 mph 1019.7mb 69f 67f
3:12 1 5 mph 1019.7mb 70f 67f
3:06 1 5 mph 1019.8mb 70f 67f
3:00  -  7 mph 1019.7mb 70f 67f
2:54 2 11 mph 1019.7mb 70f 66f
2:48 3 7 mph 1019.8mb 70f 66f
2:42 5 8 mph 1019.8mb 69f 65f
2:36 7 10 mph 1019.8mb 69f 64f
2:30 6 11 mph 1019.8mb 69f 65f
2:24 3 7 mph 1019.8mb 69f 66f
2:18  -  5 mph 1019.8mb 67f 67f
2:12 2 8 mph 1019.7mb 67f 66f
2:06 6 13 mph 1019.7mb 67f 65f
2:00 1 6 mph 1019.7mb 67f 67f
1:54 1 7 mph 1019.8mb 67f 66f
1:48 2 10 mph 1019.8mb 67f 65f
1:42 2 9 mph 1019.8mb 67f 65f
1:36 2 9 mph 1019.8mb 67f 66f
1:30 3 11 mph 1019.8mb 68f 65f
1:24 3 7 mph 1019.8mb 68f 65f
1:18 3 9 mph 1019.8mb 68f 65f
1:12 1 5 mph 1019.8mb 68f 66f
1:06 1 6 mph 1019.8mb 67f 66f
1:00 1 8 mph 1019.8mb 68f 66f
12:54 3 8 mph 1019.8mb 68f 65f
12:48 2 7 mph 1019.8mb 69f 65f
12:42 2 8 mph 1019.8mb 69f 65f
12:36 2 6 mph 1019.7mb 69f 65f
12:30 1 10 mph 1019.7mb 69f 65f
12:24 5 10 mph 1019.7mb 68f 65f
12:18 2 7 mph 1019.7mb 68f 65f
12:12 5 9 mph 1019.7mb 68f 65f
12:06 6 10 mph 1019.6mb 68f 64f
12:00 5 10 mph 1019.6mb 69f 64f
11:54 1 5 mph 1019.6mb 69f 65f
11:48 1 8 mph 1019.6mb 69f 65f
11:42 3 9 mph 1019.6mb 68f 64f
11:36 1 8 mph 1019.5mb 68f 65f
11:30 2 9 mph 1019.4mb 68f 65f
11:24 3 10 mph 1019.4mb 69f 64f
11:18 2 7 mph 1019.4mb 69f 64f
11:12 2 5 mph 1019.4mb 69f 65f
11:06 1 7 mph 1019.3mb 69f 65f
11:00 2 7 mph 1019.3mb 69f 64f
10:54 2 8 mph 1019.3mb 69f 64f
10:48 2 7 mph 1019.3mb 69f 64f
9:18 1 6 mph 1019.1mb 70f 61f
9:12 5
mph
1019.1mb 70f 61f
9:06 3 6 mph 1019.1mb 70f 61f
9:00 2 3 mph 1019.1mb 70f 61f
8:54 2 5 mph 1019.1mb 70f 60f
8:48 3 6 mph 1019mb 70f 60f
8:42 3 5 mph 1019mb 70f 60f
8:36 5 6 mph 1018.9mb 70f 60f
8:30 5 6 mph 1018.9mb 70f 60f
8:24 3 7 mph 1018.9mb 70f 60f
8:18 5 7 mph 1018.9mb 69f 60f
8:12 5 7 mph 1018.9mb 69f 60f
8:06 6 8 mph 1018.8mb 69f 60f
8:00 6 8 mph 1018.8mb 69f 60f
7:54 6 7 mph 1018.8mb 69f 60f
7:48 5 6 mph 1018.8mb 69f 60f
7:42 5 6 mph 1018.7mb 69f 60f
7:36 5 8 mph 1018.7mb 69f 60f
7:30 6 7 mph 1018.7mb 68f 59f
7:24 3 5 mph 1018.6mb 68f 59f
7:18 2 6 mph 1018.6mb 68f 59f
7:12 5 8 mph 1018.6mb 68f 59f
7:06 5 6 mph 1018.6mb 68f 59f
7:00 3 7 mph 1018.6mb 68f 59f
6:54 6 7 mph 1018.5mb 68f 59f
6:48 5 7 mph 1018.6mb 68f 59f
6:42 5 8 mph 1018.6mb 68f 59f
6:36 3 7 mph 1018.6mb 68f 59f
6:30 6 8 mph 1018.6mb 68f 59f
6:24 5 6 mph 1018.6mb 68f 59f
6:18 2 5 mph 1018.6mb 68f 59f
6:12 2 6 mph 1018.5mb 68f 58f
6:06 3 6 mph 1018.5mb 68f 58f
6:00 3 5 mph 1018.4mb 68f 59f
5:54 2 3 mph 1018.4mb 68f 58f
5:48 2 5 mph 1018.3mb 68f 58f
5:42 5 8 mph 1018.3mb 68f 58f
5:36 5 8 mph 1018.2mb 68f 58f
5:30 3 5 mph 1018.2mb 68f 58f
5:24 2 3 mph 1018.2mb 68f 58f
5:18 1 5 mph 1018.2mb 68f 58f
5:12 3 6 mph 1018.2mb 68f 58f
5:06 5 8 mph 1018.2mb 68f 58f
5:00 6 8 mph 1018.2mb 68f 58f
4:54 6 9 mph 1018.3mb 68f 58f
4:48 7 9 mph 1018.2mb 68f 58f
4:42 6 11 mph 1018.2mb 68f 58f
4:36 8 11 mph 1018.2mb 68f 58f
4:30 7 9 mph 1018.2mb 68f 59f
4:24 6 8 mph 1018.2mb 68f 59f
4:18 1 3 mph 1018.2mb 68f 60f
4:12  -  2 mph 1018.2mb 68f 60f
4:06 2 3 mph 1018.2mb 68f 60f
4:00 1 2 mph 1018.2mb 68f 59f
3:54 1 2 mph 1018.2mb 68f 60f
3:48 1 5 mph 1018.2mb 68f 60f
3:42 2 5 mph 1018.2mb 68f 60f
3:36 1 3 mph 1018.3mb 68f 60f
3:30 2 3 mph 1018.3mb 68f 60f
3:24 3 5 mph 1018.3mb 68f 60f
3:18 3
mph
1018.4mb 68f 60f
3:12 2 5 mph 1018.4mb 68f 60f
3:06 2 3 mph 1018.4mb 68f 59f
3:00 1 3 mph 1018.4mb 68f 59f
2:54 2 5 mph 1018.5mb 68f 59f
2:48 2 5 mph 1018.5mb 68f 59f
2:42 3 5 mph 1018.5mb 68f 59f
2:36 3
mph
1018.5mb 68f 59f
2:30 3
mph
1018.6mb 68f 59f
2:24 2 3 mph 1018.6mb 68f 59f
2:18 2 6 mph 1018.7mb 68f 59f
2:12 3
mph
1018.7mb 68f 59f
2:06 3 6 mph 1018.8mb 68f 59f
2:00 3 5 mph 1018.8mb 68f 59f
1:54 2 5 mph 1018.8mb 68f 59f
1:48 3 5 mph 1018.9mb 68f 59f
1:42 3 5 mph 1018.9mb 68f 59f
1:36 3 5 mph 1018.9mb 68f 59f
1:30 3 5 mph 1018.9mb 68f 59f
1:24 3
mph
1019mb 67f 59f
1:18 1 3 mph 1019mb 67f 59f
1:12 3 5 mph 1019mb 67f 59f
1:06 2
mph
1019mb 67f 60f
1:00 2 3 mph 1019mb 67f 60f
12:54  -  6 mph 1019.1mb 67f 60f
12:48 5 6 mph 1019.1mb 67f 60f
12:42 3 5 mph 1019mb 67f 61f
12:36 3 6 mph 1019mb 67f 61f
12:30 5 6 mph 1019mb 67f 60f
12:24 3 6 mph 1019mb 67f 61f
12:18 3 6 mph 1019mb 67f 61f
12:12 3 6 mph 1019.1mb 68f 61f
12:06 5 6 mph 1019.2mb 68f 60f
12:00 5 7 mph 1019.2mb 68f 60f
sam. 07/25 11:54 5 7 mph 1019.2mb 68f 60f
11:48 5 6 mph 1019.3mb 68f 60f
11:42 3 6 mph 1019.3mb 68f 60f
11:36 5 6 mph 1019.3mb 69f 60f
11:30 5 6 mph 1019.3mb 69f 60f
11:24 3 5 mph 1019.4mb 69f 61f
11:18 3 6 mph 1019.4mb 69f 61f
11:12 3 5 mph 1019.4mb 69f 61f
11:06 2 3 mph 1019.4mb 69f 61f
11:00 2 3 mph 1019.5mb 69f 61f
10:54 2 3 mph 1019.5mb 69f 61f
10:48 3 6 mph 1019.6mb 69f 61f
10:42 3 6 mph 1019.6mb 69f 61f
10:36 5 6 mph 1019.6mb 69f 61f
10:30 5 7 mph 1019.6mb 69f 62f
10:24 6 8 mph 1019.6mb 69f 62f
10:18 7 9 mph 1019.6mb 69f 62f
10:12 5 9 mph 1019.6mb 69f 62f
10:06 5 8 mph 1019.7mb 68f 62f
10:00 5 8 mph 1019.7mb 68f 62f
9:54 6 8 mph 1019.7mb 68f 62f
9:48 6 8 mph 1019.7mb 68f 62f
9:42 6 8 mph 1019.7mb 68f 62f
9:36 7 8 mph 1019.7mb 68f 62f
9:30 7 8 mph 1019.6mb 68f 62f
9:24 6 7 mph 1019.6mb 68f 62f
9:18 7 9 mph 1019.6mb 68f 62f
9:12 6 9 mph 1019.6mb 68f 62f
9:06 7 9 mph 1019.6mb 69f 63f
9:00 8 10 mph 1019.5mb 69f 63f
8:54 7 9 mph 1019.5mb 70f 63f
8:48 6 9 mph 1019.5mb 70f 63f
8:42 2 7 mph 1019.6mb 70f 63f
8:36 3 7 mph 1019.6mb 70f 63f
8:30 3 7 mph 1019.6mb 70f 64f
8:24 3 7 mph 1019.5mb 70f 64f
8:18 1 5 mph 1019.6mb 70f 63f
8:12 1 8 mph 1019.6mb 71f 63f
8:06 1 9 mph 1019.7mb 71f 63f
8:00 7 10 mph 1019.7mb 71f 63f
7:54 7 11 mph 1019.7mb 71f 63f
7:48 8 13 mph 1019.8mb 71f 63f
7:42 8 11 mph 1019.8mb 71f 64f
7:36 6 13 mph 1019.9mb 71f 64f
7:30 8 13 mph 1019.9mb 71f 64f
7:24 10 15 mph 1019.9mb 71f 64f
7:18 3 11 mph 1019.9mb 71f 64f
7:12 7 14 mph 1020mb 71f 64f
7:06 5 14 mph 1020mb 71f 64f
7:00 9 13 mph 1020mb 71f 64f
6:54 9 14 mph 1020mb 71f 64f
6:48 8 13 mph 1020mb 71f 64f
6:42 9 14 mph 1020mb 71f 64f
6:36 6 14 mph 1020.1mb 71f 65f
6:30 2 13 mph 1020.1mb 71f 65f
6:24 3 11 mph 1020.1mb 71f 65f
6:18 2 10 mph 1020.1mb 71f 65f
6:12 3 11 mph 1020mb 71f 65f
6:06 11 15 mph 1020mb 71f 63f
6:00 10 13 mph 1020.1mb 71f 63f
5:54 14 15 mph 1020.1mb 71f 63f
5:48 6 9 mph 1020.1mb 71f 64f
5:42 2 13 mph 1020.2mb 71f 65f
5:36 3 11 mph 1020.2mb 71f 65f
5:30 2 11 mph 1020.2mb 70f 66f
5:24 3 14 mph 1020.3mb 70f 66f
5:18 3 10 mph 1020.3mb 70f 65f
5:12 2 11 mph 1020.3mb 70f 65f
5:06 8 14 mph 1020.3mb 70f 65f
5:00 3 11 mph 1020.3mb 70f 65f
4:54 6 13 mph 1020.3mb 69f 65f
4:48 7 14 mph 1020.2mb 69f 65f
4:42 6 10 mph 1020.3mb 69f 65f
4:36 3 10 mph 1020.3mb 70f 66f
4:30 2 10 mph 1020.2mb 71f 66f
4:24 6 13 mph 1020.2mb 71f 66f
4:18 2 9 mph 1020.2mb 70f 66f
4:12 2 11 mph 1020.3mb 70f 66f
4:06 6 11 mph 1020.3mb 69f 66f
4:00 2 7 mph 1020.3mb 69f 67f
3:54 1 11 mph 1020.3mb 69f 67f
3:48 5 10 mph 1020.3mb 69f 66f
3:42 2 14 mph 1020.3mb 69f 66f
3:36 2 10 mph 1020.3mb 69f 67f
3:30 2 10 mph 1020.3mb 69f 66f
3:24 3 10 mph 1020.4mb 69f 66f
3:18 3 11 mph 1020.4mb 70f 65f
3:12 3 10 mph 1020.3mb 70f 66f
3:06 3 13 mph 1020.3mb 70f 66f
3:00 3 10 mph 1020.3mb 69f 66f
2:54 3 13 mph 1020.3mb 69f 66f
2:48 7 14 mph 1020.3mb 69f 65f
2:42 5 10 mph 1020.3mb 70f 65f
2:36 6 14 mph 1020.3mb 70f 65f
2:30 2 10 mph 1020.4mb 70f 65f
2:24 5 13 mph 1020.3mb 70f 65f
2:18 7 13 mph 1020.3mb 69f 65f
2:12 8 15 mph 1020.3mb 69f 64f
2:06 8 14 mph 1020.3mb 69f 65f
2:00 6 13 mph 1020.3mb 69f 65f
1:54 6 11 mph 1020.3mb 69f 65f
1:48 2 11 mph 1020.3mb 69f 65f
1:42 5 10 mph 1020.2mb 69f 65f
1:36 1 7 mph 1020.2mb 69f 65f
1:30 5 9 mph 1020.2mb 69f 65f
1:24 1 5 mph 1020.2mb 68f 65f
1:18 1 8 mph 1020.2mb 68f 65f
1:12 2 8 mph 1020.2mb 68f 65f
1:06 2 6 mph 1020.2mb 69f 65f
1:00 2 9 mph 1020.2mb 69f 65f
12:54 5 7 mph 1020.1mb 69f 64f
12:48 5 9 mph 1020.1mb 69f 64f
12:42 3 8 mph 1020.1mb 69f 65f
12:36 1 8 mph 1020.2mb 69f 65f
12:30 2 6 mph 1020.2mb 69f 65f
12:24 5 10 mph 1020.1mb 69f 64f
12:18 2 7 mph 1020.1mb 69f 65f
12:12 2 7 mph 1020.1mb 69f 64f
12:06 1 6 mph 1020.1mb 69f 64f
12:00 5 8 mph 1020.1mb 69f 64f
11:54 2 7 mph 1020.1mb 69f 64f
11:48  -  5 mph 1020.1mb 69f -
11:42 5 7 mph 1020.1mb 69f -
11:36 1 7 mph 1020mb 69f -
11:30 2 6 mph 1020mb 69f 64f
11:24 2 8 mph 1020mb 70f 64f
11:18 3 7 mph 1020mb 70f 63f
11:12 1 5 mph 1020mb 70f 64f
11:06 2 7 mph 1020mb 70f 63f
11:00 2 6 mph 1019.9mb 70f 63f
10:54 1 5 mph 1019.9mb 70f 63f
10:48 1 6 mph 1019.9mb 70f 63f
10:42 3 6 mph 1020mb 70f 62f
10:36 2 6 mph 1019.9mb 70f 62f
10:30 3 7 mph 1019.9mb 70f 62f
10:24 6 7 mph 1019.9mb 70f 61f
10:18 3 5 mph 1019.9mb 69f 61f
10:12 2 5 mph 1019.8mb 69f 61f
10:06 3 5 mph 1019.8mb 69f 61f
10:00 2 5 mph 1019.7mb 70f 61f
9:54 5 6 mph 1019.7mb 70f 61f
9:48 5 6 mph 1019.6mb 70f 61f
9:42 3 6 mph 1019.6mb 70f 61f
9:36 3 5 mph 1019.5mb 70f 61f
9:30 2 3 mph 1019.5mb 70f 61f
9:24 1 2 mph 1019.6mb 70f 61f
9:18 1 2 mph 1019.5mb 70f 60f
9:12  -  1 mph 1019.4mb 70f 60f
9:06 1 2 mph 1019.4mb 70f 60f
9:00 1 2 mph 1019.4mb 70f 60f
8:54 1 2 mph 1019.4mb 70f 59f
8:48 2 3 mph 1019.4mb 70f 59f
8:42 2 3 mph 1019.4mb 70f 59f
8:36 2 3 mph 1019.4mb 70f 59f
8:30 3 5 mph 1019.3mb 70f 59f
8:24 3
mph
1019.3mb 70f 59f
8:18 1 8 mph 1019.3mb 70f 60f
8:12 8 10 mph 1019.4mb 70f 60f
8:06 10 11 mph 1019.4mb 70f 60f
8:00 8 11 mph 1019.4mb 70f 60f
7:54 2 5 mph 1019.4mb 70f 60f
7:48 5 8 mph 1019.3mb 70f 59f
7:42 5 8 mph 1019.3mb 70f 60f
7:36 5 8 mph 1019.1mb 70f 60f
7:30 3 6 mph 1019.2mb 70f 60f
7:24 3 7 mph 1019.2mb 70f 59f
7:18 7 9 mph 1019.2mb 70f 59f
7:12 2 7 mph 1019.2mb 70f 60f
7:06 5 7 mph 1019.1mb 70f 58f
7:00 5 7 mph 1019.1mb 69f 58f
6:54 5 8 mph 1019.1mb 69f 59f
6:48 6 8 mph 1019mb 69f 59f
6:42 5 7 mph 1018.9mb 69f 59f
6:36 6 7 mph 1018.9mb 69f 59f
6:30 5 6 mph 1018.8mb 69f 59f
6:24 3 5 mph 1018.8mb 69f 59f
6:18 3 6 mph 1018.8mb 69f 59f
6:12 3 5 mph 1018.7mb 69f 59f
6:06 2 5 mph 1018.7mb 69f 59f
6:00 5 6 mph 1018.5mb 69f 59f
5:54 5 6 mph 1018.6mb 69f 59f
5:48 3 5 mph 1018.6mb 69f 59f
5:42 3 5 mph 1018.6mb 69f 59f
5:36 2 3 mph 1018.5mb 69f 60f
5:30 1 2 mph 1018.4mb 69f 60f
5:24 2
mph
1018.5mb 69f 59f
5:18 2 3 mph 1018.5mb 69f 59f
5:12 2 3 mph 1018.5mb 69f 60f
5:06 2 3 mph 1018.5mb 69f 60f
5:00 2
mph
1018.4mb 69f 60f
4:54 1 2 mph 1018.5mb 69f 60f
4:48  -  2 mph 1018.5mb 69f 60f
4:42 1 2 mph 1018.4mb 69f 59f
4:36  -  1 mph 1018.5mb 69f 59f
4:30 1 3 mph 1018.4mb 69f 59f
4:24 2
mph
1018.3mb 69f 59f
4:18 2
mph
1018.4mb 69f 60f
4:12 1 2 mph 1018.5mb 69f 60f
4:06 1 2 mph 1018.5mb 69f 60f
4:00 1 2 mph 1018.6mb 69f 60f
3:54 1 3 mph 1018.7mb 69f 60f
3:48 2 6 mph 1018.7mb 69f 60f
3:42 5 6 mph 1018.7mb 69f 61f
3:36 3 9 mph 1018.6mb 69f 60f
3:30 5 7 mph 1018.6mb 69f 60f
3:24 1 3 mph 1018.6mb 69f 61f
3:18 1 2 mph 1018.7mb 69f 61f
3:12 1 5 mph 1018.6mb 69f 61f
3:06 3 6 mph 1018.7mb 69f 60f
3:00 3 5 mph 1018.6mb 69f 60f
2:54 2 5 mph 1018.6mb 69f 60f
2:48 3 6 mph 1018.6mb 69f 60f
2:42 6 9 mph 1018.6mb 69f 60f
2:36 8 9 mph 1018.6mb 69f 61f
2:30 8 10 mph 1018.6mb 69f 61f
2:24 2 6 mph 1018.6mb 69f 61f
2:18 3 5 mph 1018.6mb 69f 61f
2:12 2 5 mph 1018.5mb 69f 61f
2:06 5 6 mph 1018.6mb 69f 61f
2:00 2 3 mph 1018.6mb 69f 62f
1:54 2 6 mph 1018.6mb 69f 61f
1:48 5 7 mph 1018.7mb 69f 61f
1:42 2 5 mph 1018.7mb 69f 62f
1:36 1 5 mph 1018.7mb 69f 61f
1:30 1 3 mph 1018.7mb 69f 61f
1:24 3 6 mph 1018.6mb 69f 61f
1:18 6 9 mph 1018.6mb 69f 62f
1:12 5 7 mph 1018.7mb 69f 62f
1:06 6 9 mph 1018.6mb 69f 62f
1:00 8 11 mph 1018.7mb 69f 62f
12:54 5 8 mph 1018.7mb 69f 62f
12:48 5 7 mph 1018.8mb 69f 62f
12:42 1 3 mph 1018.8mb 69f 62f
12:36 2 7 mph 1018.8mb 69f 62f
12:30 6 8 mph 1018.9mb 69f 62f
12:24 5 6 mph 1018.9mb 69f 62f
12:18 5 7 mph 1018.9mb 69f 61f
12:12 6 7 mph 1019mb 69f 61f
12:06 5 7 mph 1019mb 69f 61f
12:00 6 10 mph 1019.1mb 69f 61f
ven. 07/24 11:54 8 11 mph 1019mb 69f 61f
11:48 9 13 mph 1019mb 69f 61f
11:42 11 13 mph 1019mb 69f 61f
11:36 10 13 mph 1018.9mb 69f 61f
11:30  -  8 mph 1018.9mb 69f 63f
11:24 1 5 mph 1019mb 69f 63f
11:18 1 5 mph 1019mb 69f 63f
11:12 1 3 mph 1018.9mb 69f 63f
11:06 1 7 mph 1019mb 69f 63f
11:00 5 8 mph 1019mb 69f 63f
10:54 7 9 mph 1019mb 69f 63f
10:48 7 9 mph 1019mb 69f 62f
10:42 6 10 mph 1019mb 70f 63f
10:36 7 8 mph 1019mb 70f 63f
10:30 6 10 mph 1019mb 70f 63f
10:24 7 10 mph 1019mb 70f 62f
10:18 8 9 mph 1019mb 70f 62f
10:12 7 10 mph 1019mb 70f 62f
10:06 6 9 mph 1019mb 70f 62f
10:00 7 9 mph 1019mb 70f 62f
9:54 8 10 mph 1018.9mb 70f 62f
9:48 6 11 mph 1018.9mb 70f 62f
9:42 6 9 mph 1018.9mb 70f 63f
9:36 5 11 mph 1018.9mb 70f 63f
9:30 7 11 mph 1018.9mb 70f 63f
9:24 8 14 mph 1018.9mb 69f 63f
9:18 10 14 mph 1018.9mb 70f 63f
9:12 9 16 mph 1018.8mb 70f 63f
9:06 9 13 mph 1018.9mb 70f 64f
9:00 9 14 mph 1018.9mb 70f 64f
8:54 9 16 mph 1018.8mb 70f 64f
8:48 13 15 mph 1018.9mb 69f 64f
8:42 10 15 mph 1018.9mb 69f 64f
8:36 10 15 mph 1018.9mb 69f 65f
8:30 8 14 mph 1018.9mb 69f 65f
8:24 10 14 mph 1019mb 70f 65f
8:18 11 15 mph 1019mb 70f 65f
8:12 8 14 mph 1019.1mb 70f 65f
8:06 8 13 mph 1019.1mb 70f 65f
8:00 9 13 mph 1019.2mb 71f 65f
7:54 7 11 mph 1019.2mb 71f 65f
7:48 8 14 mph 1019.2mb 72f 65f
7:42 9 13 mph 1019.2mb 72f 65f
7:36 9 13 mph 1019.3mb 72f 65f
7:30 10 14 mph 1019.4mb 72f 65f
7:24 10 15 mph 1019.4mb 72f 65f
7:18 13 16 mph 1019.4mb 72f 65f
7:12 10 15 mph 1019.5mb 72f 65f
7:06 10 15 mph 1019.4mb 72f 65f
7:00 7 13 mph 1019.4mb 72f 66f
6:54 9 15 mph 1019.5mb 72f 65f
6:48 8 15 mph 1019.5mb 71f 66f
6:42 9 14 mph 1019.5mb 71f 66f
6:36 7 13 mph 1019.5mb 71f 66f
6:30 8 16 mph 1019.5mb 71f 66f
6:24 8 15 mph 1019.5mb 71f 66f
6:18 10 15 mph 1019.5mb 72f 66f
6:12 9 14 mph 1019.6mb 72f 66f
6:06 9 15 mph 1019.7mb 72f 66f